TimePDT,TemperatureF,Dew PointF,Humidity,Sea Level PressureIn,VisibilityMPH,Wind Direction,Wind SpeedMPH,Gust SpeedMPH,PrecipitationIn,Events,Conditions,WindDirDegrees,DateUTC
12:53 AM,50.0,46.9,89,30.01,10.0,Calm,Calm,-,0.00,Rain,Light Rain,0,2013-05-16 07:53:00
1:53 AM,48.0,46.9,96,30.01,9.0,Calm,Calm,-,0.00,,Overcast,0,2013-05-16 08:53:00
2:53 AM,48.0,46.9,96,30.00,6.0,Calm,Calm,-,N/A,,Overcast,0,2013-05-16 09:53:00
3:30 AM,48.0,46.9,96,29.99,5.0,Calm,Calm,-,0.01,,Overcast,0,2013-05-16 10:30:00
3:53 AM,48.0,46.9,96,29.99,6.0,Calm,Calm,-,0.01,,Overcast,0,2013-05-16 10:53:00
4:49 AM,46.4,46.4,100,29.99,1.5,Calm,Calm,-,N/A,,Mostly Cloudy,0,2013-05-16 11:49:00
4:53 AM,46.9,46.0,97,29.99,1.0,Calm,Calm,-,N/A,,Mostly Cloudy,0,2013-05-16 11:53:00
5:07 AM,46.9,45.0,93,29.99,2.5,SSE,3.5,-,N/A,,Partly Cloudy,150,2013-05-16 12:07:00
5:14 AM,46.9,46.0,97,29.99,3.0,South,3.5,-,N/A,,Partly Cloudy,170,2013-05-16 12:14:00
5:19 AM,46.0,46.0,100,29.99,1.8,Calm,Calm,-,N/A,,Partly Cloudy,0,2013-05-16 12:19:00
5:28 AM,46.0,45.0,96,29.99,0.5,Calm,Calm,-,N/A,Fog,Fog,0,2013-05-16 12:28:00
5:43 AM,45.0,44.1,97,29.99,0.2,Calm,Calm,-,N/A,Fog,Fog,0,2013-05-16 12:43:00
5:53 AM,45.0,44.1,97,29.99,0.2,Calm,Calm,-,N/A,Fog,Fog,0,2013-05-16 12:53:00
6:07 AM,46.0,45.0,96,29.99,1.0,Calm,Calm,-,N/A,,Overcast,0,2013-05-16 13:07:00
6:16 AM,46.0,45.0,96,29.99,2.0,Calm,Calm,-,N/A,,Overcast,0,2013-05-16 13:16:00
6:28 AM,46.4,44.6,93,29.99,4.0,Calm,Calm,-,N/A,,Overcast,0,2013-05-16 13:28:00
6:37 AM,46.9,46.0,97,29.99,3.0,Calm,Calm,-,N/A,,Overcast,0,2013-05-16 13:37:00
6:53 AM,48.0,46.0,93,30.00,10.0,Calm,Calm,-,N/A,,Overcast,0,2013-05-16 13:53:00
7:34 AM,48.9,48.0,97,30.00,1.8,Calm,Calm,-,N/A,,Overcast,0,2013-05-16 14:34:00
7:46 AM,50.0,48.9,96,30.00,0.8,Calm,Calm,-,N/A,,Overcast,0,2013-05-16 14:46:00
7:53 AM,50.0,48.9,96,30.00,0.2,Calm,Calm,-,N/A,Fog,Fog,0,2013-05-16 14:53:00
8:03 AM,50.0,48.9,96,30.00,1.0,Calm,Calm,-,N/A,,Overcast,0,2013-05-16 15:03:00
8:10 AM,51.1,48.9,92,30.00,0.2,Calm,Calm,-,N/A,Fog,Fog,0,2013-05-16 15:10:00
8:53 AM,51.1,50.0,96,30.00,0.2,East,4.6,-,N/A,Fog,Fog,90,2013-05-16 15:53:00
9:16 AM,52.0,51.1,97,30.00,1.0,ESE,3.5,-,N/A,,Overcast,110,2013-05-16 16:16:00
9:21 AM,51.1,50.0,96,30.00,3.0,ESE,4.6,-,N/A,,Overcast,120,2013-05-16 16:21:00
9:32 AM,51.1,50.0,96,30.00,1.5,East,4.6,-,N/A,,Overcast,90,2013-05-16 16:32:00
9:53 AM,51.1,50.0,96,30.00,4.0,East,6.9,-,N/A,,Overcast,90,2013-05-16 16:53:00
10:02 AM,52.0,51.1,97,30.00,2.5,ESE,4.6,-,N/A,,Overcast,110,2013-05-16 17:02:00
10:09 AM,52.0,50.0,93,30.00,8.0,East,4.6,-,N/A,,Overcast,80,2013-05-16 17:09:00
10:14 AM,52.0,50.0,93,29.99,1.8,East,5.8,-,N/A,,Overcast,80,2013-05-16 17:14:00
10:25 AM,52.0,51.1,97,30.00,3.0,East,4.6,-,N/A,,Overcast,80,2013-05-16 17:25:00
10:51 AM,51.8,51.8,100,29.99,1.8,East,5.8,-,N/A,,Overcast,80,2013-05-16 17:51:00
10:53 AM,52.0,51.1,97,30.00,1.5,ENE,3.5,-,N/A,,Overcast,70,2013-05-16 17:53:00
11:01 AM,53.1,51.1,93,29.99,4.0,East,4.6,-,N/A,,Overcast,90,2013-05-16 18:01:00
11:43 AM,54.0,51.1,90,29.99,10.0,NNE,5.8,-,N/A,,Overcast,30,2013-05-16 18:43:00
11:53 AM,53.1,50.0,89,30.00,10.0,NNE,4.6,-,N/A,,Overcast,30,2013-05-16 18:53:00
12:53 PM,55.9,52.0,87,29.99,10.0,Variable,4.6,-,N/A,,Overcast,0,2013-05-16 19:53:00
1:28 PM,57.0,51.1,81,29.97,10.0,NNE,6.9,-,N/A,,Scattered Clouds,30,2013-05-16 20:28:00
1:53 PM,55.9,52.0,87,29.97,10.0,Variable,4.6,-,N/A,,Scattered Clouds,0,2013-05-16 20:53:00
2:53 PM,59.0,51.1,75,29.96,10.0,Variable,6.9,-,N/A,,Overcast,0,2013-05-16 21:53:00
3:53 PM,61.0,48.9,64,29.94,10.0,ENE,6.9,-,N/A,,Clear,70,2013-05-16 22:53:00
4:53 PM,60.1,48.0,64,29.93,10.0,NNE,3.5,-,N/A,,Clear,30,2013-05-16 23:53:00
5:53 PM,60.1,50.0,69,29.92,10.0,Calm,Calm,-,N/A,,Overcast,0,2013-05-17 00:53:00
6:53 PM,57.0,50.0,77,29.91,10.0,NNW,4.6,-,N/A,,Overcast,340,2013-05-17 01:53:00
7:53 PM,55.0,50.0,83,29.92,10.0,West,3.5,-,N/A,,Overcast,260,2013-05-17 02:53:00
8:53 PM,54.0,51.1,90,29.92,10.0,West,4.6,-,0.00,,Mostly Cloudy,280,2013-05-17 03:53:00
9:53 PM,55.0,52.0,89,29.94,10.0,WNW,4.6,-,N/A,,Overcast,300,2013-05-17 04:53:00
10:53 PM,55.0,50.0,83,29.94,10.0,WSW,6.9,-,N/A,,Mostly Cloudy,250,2013-05-17 05:53:00
11:53 PM,55.0,48.9,80,29.94,10.0,West,8.1,-,N/A,,Mostly Cloudy,260,2013-05-17 06:53:00